This is the latest recevied weather packets stored in our database for station/object N3DXC. If no packets are shown the sender has not sent any weather packets the latest 10 day(s).
| Time | Temp. | Humidity | Pressure | Rain* | Wind** | Luminosity | Snow |
|---|---|---|---|---|---|---|---|
| 1778160585 | 8.89° C | 64% | 1013.4 hPa | 0 mm | - | - | - |
| 1778160285 | 8.89° C | 67% | 1013.4 hPa | 0 mm | - | - | - |
| 1778159985 | 8.33° C | 68% | 1013.4 hPa | 0 mm | - | - | - |
| 1778159685 | 8.33° C | 68% | 1013.4 hPa | 0 mm | - | - | - |
| 1778159385 | 8.33° C | 67% | 1013.3 hPa | 0 mm | - | - | - |
| 1778159085 | 8.33° C | 71% | 1013.3 hPa | 0 mm | - | - | - |
| 1778158785 | 7.78° C | 70% | 1013.4 hPa | 0 mm | - | - | - |
| 1778158484 | 7.78° C | 71% | 1013.4 hPa | 0 mm | - | - | - |
| 1778158185 | 7.22° C | 72% | 1013.4 hPa | 0 mm | - | - | - |
| 1778157884 | 7.22° C | 74% | 1013.5 hPa | 0 mm | - | - | - |
| 1778157585 | 7.22° C | 77% | 1013.4 hPa | 0 mm | - | - | - |
| 1778157284 | 6.67° C | 79% | 1013.5 hPa | 0 mm | - | - | - |
| 1778156985 | 6.67° C | 81% | 1013.5 hPa | 0 mm | - | - | - |
| 1778156684 | 6.11° C | 83% | 1013.4 hPa | 0 mm | - | - | - |
| 1778156385 | 6.11° C | 85% | 1013.4 hPa | 0 mm | - | - | - |
| 1778156087 | 5.56° C | 88% | 1013.3 hPa | 0 mm | - | - | - |
| 1778155785 | 5.56° C | 90% | 1013.4 hPa | 0 mm | - | - | - |
| 1778155485 | 5° C | 91% | 1013.4 hPa | 0 mm | - | - | - |
| 1778155185 | 5° C | 92% | 1013.3 hPa | 0 mm | - | - | - |
| 1778154886 | 4.44° C | 92% | 1013.4 hPa | 0 mm | - | - | - |
| 1778154585 | 3.89° C | 93% | 1013.4 hPa | 0 mm | - | - | - |
| 1778154286 | 3.89° C | 94% | 1013.4 hPa | 0 mm | - | - | - |
| 1778153985 | 3.89° C | 94% | 1013.3 hPa | 0 mm | - | - | - |
| 1778153685 | 3.33° C | 94% | 1013.1 hPa | 0 mm | - | - | - |
| 1778153385 | 2.78° C | 94% | 1013.1 hPa | 0 mm | - | - | - |
* Rain latest hour (hover to see other rain measurements)
** Current wind speed in m/s (hover to see current wind gust speed)